Ahmedabad, India

1:34 PM IST on March 27, 2017 (GMT +0530)
Ahmedabad

Weather History for VAAH - March, 2013

Change the Weather History Date:

Sunday, March 3, 2013

  Actual Average Record
Temperature  
Mean Temperature 76 °F -  
Max Temperature 96 °F 94 °F 100 °F (2011)
Min Temperature 56 °F 68 °F 56 °F (2013)
Cooling Degree Days 11    
Growing Degree Days 26 (Base 50)    
Moisture  
Dew Point 39 °F    
Average Humidity 29    
Maximum Humidity 63    
Minimum Humidity 6    
Precipitation  
Precipitation 0.00 in 0.00 in - ()
Sea Level Pressure  
Sea Level Pressure 29.95 in    
Wind  
Wind Speed 4 mph ()    
Max Wind Speed 9 mph    
Max Gust Speed -    
Visibility 3.0 miles    
Events      
Averages and records for this station are not official NWS values.
T = Trace of Precipitation, MM = Missing Value Source: Averaged Metar Reports

Daily Weather History Graph

Daily Weather History Graph

Search for Another Location

Airport or City:

Trip Planner

Search our weather history database for the weather conditions in past years. The results will help you decide how hot, cold, wet, or windy it might be!

Date:

Astronomy

Mar. 03, 2013 Rise Set
Actual Time 6:59 AM IST 6:43 PM IST
Civil Twilight 6:36 AM IST 7:06 PM IST
Nautical Twilight 6:10 AM IST 7:32 PM IST
Astronomical Twilight 5:44 AM IST 7:58 PM IST
Moon 12:13 AM IST (3/4) 10:35 AM IST (3/3)
Length of Visible Light 12h 29m
Length of Day
11h 44m
Waning Gibbous, 68% of the Moon is Illuminated
Mar 3
Waning Gibbous
Mar 5
Last Quarter
Mar 12
New
Mar 19
First Quarter
Mar 27
Full

Hourly Weather History & Observations

Time (IST) Temp. Dew Point Humidity Pressure Visibility Wind Dir Wind Speed Gust Speed Precip Events Conditions
12:10 AM 64.4 °F 48.2 °F 56% 29.98 in 2.5 mi NNE 2.3 mph - N/A   Smoke
12:40 AM 62.6 °F 46.4 °F 55% 29.98 in 2.5 mi NE 2.3 mph - N/A   Smoke
1:10 AM 60.8 °F 46.4 °F 59% 29.98 in 2.5 mi ENE 2.3 mph - N/A   Smoke
1:40 AM 60.8 °F 37.4 °F 42% 29.95 in 2.5 mi Calm Calm - N/A   Haze
2:10 AM 59.0 °F 42.8 °F 55% 29.95 in 2.5 mi Calm Calm - N/A   Haze
2:30 AM 58 °F 45 °F 51% 29.99 in 2 mi Calm Calm - -  
2:40 AM 59.0 °F 46.4 °F 63% 29.95 in 2.5 mi Calm Calm - N/A   Haze
3:10 AM 60.8 °F 39.2 °F 45% 29.95 in 2.5 mi NE 4.6 mph - N/A   Haze
3:40 AM 59.0 °F 39.2 °F 48% 29.95 in 2.5 mi NE 2.3 mph - N/A   Haze
4:10 AM 57.2 °F 37.4 °F 48% 29.95 in 2.5 mi NE 2.3 mph - N/A   Haze
4:40 AM 59.0 °F 35.6 °F 42% 29.92 in 2.5 mi ENE 4.6 mph - N/A   Haze
5:10 AM 59.0 °F 39.2 °F 48% 29.95 in 2.5 mi NE 3.5 mph - N/A   Haze
5:30 AM 65 °F 40 °F 28% 29.96 in 2 mi NNE 4.6 mph - -  
5:40 AM 62.6 °F 35.6 °F 37% 29.95 in 2.5 mi NE 5.8 mph - N/A   Haze
6:10 AM 62.6 °F 33.8 °F 34% 29.95 in 2.5 mi ENE 6.9 mph - N/A   Haze
6:40 AM 62.6 °F 33.8 °F 34% 29.95 in 2.5 mi ENE 6.9 mph - N/A   Haze
7:40 AM 64.4 °F 33.8 °F 32% 29.98 in 2.2 mi East 8.1 mph - N/A   Smoke
8:10 AM 68.0 °F 33.8 °F 28% 29.98 in 2.2 mi East 6.9 mph - N/A   Smoke
8:30 AM 71 °F 36 °F 17% 30.03 in 2 mi NE 4.6 mph - -  
8:40 AM 71.6 °F 33.8 °F 25% 30.01 in 2.2 mi ENE 9.2 mph - N/A   Smoke
9:10 AM 75.2 °F 35.6 °F 24% 30.01 in 2.5 mi ENE 8.1 mph - N/A   Smoke
10:10 AM 82.4 °F 35.6 °F 19% 30.01 in 3.1 mi ENE 8.1 mph - N/A   Smoke
10:40 AM 84.2 °F 37.4 °F 19% 30.01 in 3.7 mi East 6.9 mph - N/A   Unknown
11:10 AM 87.8 °F 39.2 °F 18% 30.01 in 3.7 mi East 8.1 mph - N/A   Unknown
11:30 AM 87 °F 36 °F 9% 30.05 in 2 mi East 5.8 mph - -  
11:40 AM 89.6 °F 39.2 °F 17% 30.01 in 3.7 mi East 8.1 mph - N/A   Unknown
12:10 PM 91.4 °F 37.4 °F 15% 29.98 in 5.0 mi East 8.1 mph - N/A   Unknown
12:40 PM 93.2 °F 37.4 °F 14% 29.95 in 5.0 mi East 8.1 mph - N/A   Unknown
1:10 PM 95.0 °F 37.4 °F 13% 29.95 in 5.0 mi East 6.9 mph - N/A   Unknown
1:40 PM 96.8 °F 35.6 °F 12% 29.92 in 5.0 mi East 6.9 mph - N/A   Unknown
2:10 PM 95.0 °F 33.8 °F 12% 29.92 in 5.0 mi East 6.9 mph - N/A   Unknown
2:30 PM 95 °F 36 °F 6% 29.96 in 2 mi NE 4.6 mph - -  
2:40 PM 96.8 °F 33.8 °F 11% 29.89 in 5.0 mi ENE 5.8 mph - N/A   Unknown
3:10 PM 98.6 °F 33.8 °F 10% 29.89 in 5.0 mi ENE 5.8 mph - N/A   Unknown
3:40 PM 98.6 °F 33.8 °F 10% 29.86 in 5.0 mi ENE 8.1 mph - N/A   Unknown
4:10 PM 96.8 °F 35.6 °F 12% 29.86 in 5.0 mi East 6.9 mph - N/A   Unknown
4:40 PM 96.8 °F 35.6 °F 12% 29.86 in 5.0 mi ENE 5.8 mph - N/A   Unknown
5:10 PM 96.8 °F 33.8 °F 11% 29.86 in 5.0 mi East 5.8 mph - N/A   Unknown
5:30 PM 94 °F 36 °F 7% 29.91 in 2 mi NNW 3.5 mph - -  
5:40 PM 95.0 °F 35.6 °F 12% 29.86 in 3.7 mi ENE 6.9 mph - N/A   Unknown
6:40 PM 89.6 °F 35.6 °F 15% 29.86 in 2.5 mi ENE 4.6 mph - N/A   Smoke
7:10 PM 86.0 °F 39.2 °F 19% 29.89 in 2.5 mi NE 3.5 mph - N/A   Smoke
7:40 PM 82.4 °F 39.2 °F 21% 29.89 in 2.5 mi ENE 3.5 mph - N/A   Smoke
8:10 PM 80.6 °F 39.2 °F 23% 29.92 in 2.5 mi ENE 3.5 mph - N/A   Smoke
8:30 PM 72 °F 47 °F 30% 29.96 in 2 mi East 3.5 mph - -  
8:40 PM 77.0 °F 41.0 °F 28% 29.92 in 2.5 mi NE 3.5 mph - N/A   Smoke
9:10 PM 75.2 °F 41.0 °F 29% 29.95 in 2.5 mi NE 3.5 mph - N/A   Smoke
9:40 PM 71.6 °F 42.8 °F 35% 29.95 in 2.5 mi NE 3.5 mph - N/A   Smoke
10:10 PM 71.6 °F 46.4 °F 41% 29.95 in 2.5 mi ENE 3.5 mph - N/A   Smoke
10:40 PM 68.0 °F 44.6 °F 43% 29.95 in 2.5 mi NE 3.5 mph - N/A   Smoke
11:10 PM 68.0 °F 42.8 °F 40% 29.95 in 2.5 mi ENE 3.5 mph - N/A   Smoke
11:30 PM 67 °F 46 °F 36% 29.97 in 2 mi NE 4.6 mph - -  
11:40 PM 66.2 °F 44.6 °F 46% 29.95 in 2.5 mi NNE 3.5 mph - N/A   Smoke